Location: ???????
(55.3754°N, 39.3545°E)
Time: 19:44:22
(UTC+00:00)

Cosmos 1680 Rocket - Pass Details

Date: 14 April 2026
Orbit: 756 x 776 km, 74.1° (Epoch: 19 May)

Event Time Altitude Azimuth Distance (km) Brightness Sun altitude
Rises 17:17:59 0° 330° (NNW) 3,237 7.9 -7.6°
Reaches altitude 10° 17:20:25 10° 326° (NW) 2,304 7.2 -7.9°
Maximum altitude 17:25:28 53° 251° (WSW) 927 4.2 -8.5°
Drops below altitude 10° 17:30:30 10° 175° (S) 2,281 5.6 -9.1°
Sets 17:32:53 0° 171° (S) 3,201 6.3 -9.4°
